Regional Weather Roundup
Issued by NWS

Home | Current Version | Previous Version | Graphics & Text | Print | Product List | Glossary On
Versions: 1 2 3 4 5 6 7 8 9 10 11 12 13 14 15 16 17 18 19 20 21 22 23 24 25 26 27 28 29 30 31 32 33 34 35 36 37 38 39 40 41 42 43 44 45 46 47 48 49 50
000
ASUS43 KLSX 281059
RWRMO

WEATHER SUMMARY FOR MISSOURI
NATIONAL WEATHER SERVICE SPRINGFIELD MO
600 AM CDT FRI APR 28 2017

NOTE: "FAIR" INDICATES FEW OR NO CLOUDS BELOW 12,000 FEET WITH NO
       SIGNIFICANT WEATHER AND/OR OBSTRUCTIONS TO VISIBILITY.
       CURRENT SKY AND/OR WEATHER CONDITIONS ARE NOT AVAILABLE FOR
       CHILLICOTHE AND FARMINGTON.

MOZ001>031-035>038-043-044-053-054-281200-
...NORTHERN AND WESTERN MISSOURI...

CITY           SKY/WX    TMP DP  RH WIND       PRES   REMARKS
KANSAS CTY INT RAIN      51  48  89 E13       29.69S
KANSAS C DTWN  RAIN      52  50  93 E7        29.68F FOG
LEE`S SUMMIT   LGT RAIN  50  50 100 E8        29.69F
ST JOSEPH      LGT RAIN  50  48  93 NE10G16   29.71F
CHILLICOTHE      N/A     51  48  89 NE5       29.76F
KIRKSVILLE     CLOUDY    48  46  93 NE13      29.79F

$$
MOZ066>068-077>081-088>096-101>105-281200-
...SOUTHWEST MISSOURI...

CITY           SKY/WX    TMP DP  RH WIND       PRES   REMARKS
SPRINGFIELD    RAIN      54  53  97 SE16      29.72R FOG
JOPLIN         TSTM      58  55  90 S15       29.66R

$$
MOZ032>034-039>042-045>050-055>058-069>072-281200-
...CENTRAL MISSOURI...

CITY           SKY/WX    TMP DP  RH WIND       PRES   REMARKS
COLUMBIA       CLOUDY    52  50  93 E9        29.75F
JEFFERSON CITY CLOUDY    56  49  77 E7        29.76S
ROLLA          MOCLDY    53  51  93 SE7       29.75F
SEDALIA        LGT RAIN  53  52  96 E10       29.72F
WHITEMAN AFB   DRIZZLE   52  52 100 E7        29.70R
OSAGE BEACH    CLOUDY    55  51  86 E5        29.73F

$$
MOZ051-052-059>065-281200-
...EAST CENTRAL MISSOURI...

CITY           SKY/WX    TMP DP  RH WIND       PRES   REMARKS
ST LOUIS INTL  CLOUDY    55  50  83 E8        29.84R
SPIRIT OF STL  CLOUDY    54  52  93 E3        29.83S
ST CHARLES     CLOUDY    54  52  93 E6        29.83R

$$
MOZ072>076-082>087-097>100-106>115-281200-
...SOUTH CENTRAL AND SOUTHEAST MISSOURI...

CITY           SKY/WX    TMP DP  RH WIND       PRES   REMARKS
CAPE GIRARDEAU CLOUDY    55  50  83 E5        29.88R
FARMINGTON     CLOUDY    54  50  86 SE6       29.85R
POPLAR BLUFF   CLOUDY    56  54  93 CALM      29.86R
WEST PLAINS    CLOUDY    54  51  90 SE5       29.80F

$$



USA.gov is the U.S. government's official web portal to all federal, state and local government web resources and services.